When you browse on this site, cookies collect data to enhance your experience and personalize the content and advertising you see.
Visit our Privacy Policy to learn more. By continuing to use the site, you agree to this use of cookies and data.
  • In Österreich
  • Länderverzeichnis
  • Für 7 Tage
  • Wassertemperatur
  • Wetterkarte
  • News
  • Widgets
  • user-avatar
    Anmelden

    Stündliche Wetter Tallahassee

    Heute, 2 Juni, Dienstag

    Zeit Temperatur Niederschläge Wind Luftdruck Luftfeuchtigkeit
    00:00 +23°C° 0 mm 2 m/S 762 mmHg 87%
    01:00 +23°C° 0 mm 2 m/S 762 mmHg 86%
    02:00 +23°C° 0 mm 2 m/S 762 mmHg 86%
    03:00 +22°C° 0 mm 3 m/S 761 mmHg 86%
    04:00 +22°C° 0 mm 3 m/S 762 mmHg 84%
    05:00 +22°C° 0 mm 3 m/S 762 mmHg 83%
    06:00 +24°C° 0 mm 2 m/S 762 mmHg 84%
    07:00 +25°C° 0 mm 2 m/S 762 mmHg 81%
    08:00 +25°C° 0 mm 2 m/S 762 mmHg 78%
    09:00 +26°C° 0 mm 2 m/S 762 mmHg 76%
    10:00 +28°C° 0.1 mm 2 m/S 762 mmHg 67%
    11:00 +30°C° 0.1 mm 2 m/S 762 mmHg 58%
    12:00 +34°C° 0.1 mm 2 m/S 761 mmHg 49%
    13:00 +34°C° 0.1 mm 2 m/S 761 mmHg 48%
    14:00 +34°C° 0.1 mm 2 m/S 760 mmHg 47%
    15:00 +34°C° 0.1 mm 2 m/S 760 mmHg 46%
    16:00 +31°C° 0 mm 2 m/S 760 mmHg 55%
    17:00 +30°C° 0 mm 1 m/S 760 mmHg 63%
    18:00 +28°C° 0 mm 1 m/S 760 mmHg 71%
    19:00 +27°C° 0 mm 1 m/S 760 mmHg 72%
    20:00 +26°C° 0 mm 1 m/S 760 mmHg 74%
    21:00 +26°C° 0 mm 1 m/S 761 mmHg 75%
    22:00 +25°C° 0 mm 1 m/S 761 mmHg 77%
    23:00 +25°C° 0 mm 1 m/S 761 mmHg 78%

    Morgen, 3 Juni, Mittwoch

    Zeit Temperatur Niederschläge Wind Luftdruck Luftfeuchtigkeit
    00:00 +24°C° 0 mm 2 m/S 761 mmHg 80%
    01:00 +24°C° 0 mm 2 m/S 760 mmHg 81%
    02:00 +23°C° 0 mm 1 m/S 760 mmHg 83%
    03:00 +23°C° 0 mm 1 m/S 759 mmHg 84%
    04:00 +23°C° 0 mm 1 m/S 759 mmHg 84%
    05:00 +23°C° 0 mm 1 m/S 760 mmHg 83%
    06:00 +24°C° 0 mm 1 m/S 760 mmHg 82%
    07:00 +26°C° 0 mm 1 m/S 760 mmHg 76%
    08:00 +27°C° 0 mm 1 m/S 760 mmHg 69%
    09:00 +29°C° 0 mm 1 m/S 760 mmHg 62%
    10:00 +28°C° 0.5 mm 1 m/S 759 mmHg 68%
    11:00 +28°C° 0.5 mm 1 m/S 759 mmHg 74%
    12:00 +27°C° 0.5 mm 1 m/S 759 mmHg 79%
    13:00 +26°C° 0.2 mm 1 m/S 759 mmHg 83%
    14:00 +25°C° 0.2 mm 1 m/S 758 mmHg 87%
    15:00 +25°C° 0.2 mm 1 m/S 757 mmHg 91%
    16:00 +24°C° 0 mm 1 m/S 757 mmHg 92%
    17:00 +24°C° 0 mm 1 m/S 758 mmHg 92%
    18:00 +24°C° 0 mm 1 m/S 758 mmHg 92%
    19:00 +24°C° 0 mm 1 m/S 758 mmHg 93%
    20:00 +23°C° 0 mm 1 m/S 758 mmHg 94%
    21:00 +23°C° 0 mm 1 m/S 758 mmHg 95%
    22:00 +23°C° 0.5 mm 1 m/S 758 mmHg 95%
    23:00 +23°C° 0.5 mm 1 m/S 757 mmHg 95%

    übermorgen, 4 Juni, Donnerstag

    Zeit Temperatur Niederschläge Wind Luftdruck Luftfeuchtigkeit
    00:00 +23°C° 0.5 mm 1 m/S 757 mmHg 95%
    01:00 +22°C° 0.3 mm 1 m/S 757 mmHg 96%
    02:00 +22°C° 0.3 mm 1 m/S 757 mmHg 96%
    03:00 +20°C° 0.3 mm 2 m/S 756 mmHg 96%
    04:00 +20°C° 0.5 mm 2 m/S 757 mmHg 96%
    05:00 +20°C° 0.5 mm 2 m/S 757 mmHg 96%
    06:00 +20°C° 0.5 mm 2 m/S 757 mmHg 97%
    07:00 +21°C° 0.1 mm 2 m/S 757 mmHg 92%
    08:00 +23°C° 0.1 mm 2 m/S 757 mmHg 88%
    09:00 +24°C° 0.1 mm 3 m/S 758 mmHg 84%
    10:00 +25°C° 0 mm 2 m/S 757 mmHg 78%
    11:00 +27°C° 0 mm 2 m/S 757 mmHg 73%
    12:00 +28°C° 0 mm 2 m/S 757 mmHg 67%
    13:00 +28°C° 0.4 mm 2 m/S 757 mmHg 70%
    14:00 +28°C° 0.4 mm 2 m/S 756 mmHg 72%
    15:00 +28°C° 0.4 mm 2 m/S 756 mmHg 75%
    16:00 +27°C° 1 mm 2 m/S 756 mmHg 81%
    17:00 +26°C° 1 mm 1 m/S 756 mmHg 86%
    18:00 +25°C° 1 mm 1 m/S 756 mmHg 92%
    19:00 +25°C° 0.8 mm 1 m/S 757 mmHg 94%
    20:00 +24°C° 0.8 mm 1 m/S 757 mmHg 95%
    21:00 +24°C° 0.8 mm 1 m/S 757 mmHg 97%
    22:00 +24°C° 0.7 mm 1 m/S 757 mmHg 97%
    23:00 +23°C° 0.7 mm 1 m/S 757 mmHg 97%

    5 Juni, Freitag

    Zeit Temperatur Niederschläge Wind Luftdruck Luftfeuchtigkeit
    00:00 +23°C° 0.7 mm 1 m/S 757 mmHg 97%
    01:00 +23°C° 0.4 mm 1 m/S 757 mmHg 97%
    02:00 +24°C° 0.4 mm 1 m/S 756 mmHg 97%
    03:00 +24°C° 0.4 mm 1 m/S 756 mmHg 97%
    04:00 +24°C° 1 mm 1 m/S 757 mmHg 96%
    05:00 +23°C° 1 mm 0 m/S 757 mmHg 95%
    06:00 +23°C° 1 mm 0 m/S 757 mmHg 94%
    07:00 +26°C° 2.1 mm 1 m/S 758 mmHg 90%
    08:00 +28°C° 2.1 mm 1 m/S 758 mmHg 85%
    09:00 +29°C° 2.1 mm 2 m/S 758 mmHg 81%
    10:00 +29°C° 2.2 mm 2 m/S 758 mmHg 81%
    11:00 +29°C° 2.2 mm 3 m/S 758 mmHg 80%
    12:00 +29°C° 2.2 mm 3 m/S 758 mmHg 80%
    13:00 +30°C° 0.9 mm 3 m/S 757 mmHg 75%
    14:00 +30°C° 0.9 mm 3 m/S 757 mmHg 71%
    15:00 +31°C° 0.9 mm 3 m/S 757 mmHg 66%
    16:00 +30°C° 0.1 mm 3 m/S 757 mmHg 68%
    17:00 +29°C° 0.1 mm 3 m/S 757 mmHg 71%
    18:00 +28°C° 0.1 mm 2 m/S 757 mmHg 73%
    19:00 +27°C° 0 mm 2 m/S 758 mmHg 76%
    20:00 +26°C° 0 mm 1 m/S 758 mmHg 80%
    21:00 +25°C° 0 mm 1 m/S 758 mmHg 83%
    22:00 +25°C° 0 mm 1 m/S 758 mmHg 85%
    23:00 +25°C° 0 mm 1 m/S 758 mmHg 86%

    6 Juni, Samstag

    Zeit Temperatur Niederschläge Wind Luftdruck Luftfeuchtigkeit
    00:00 +25°C° 0 mm 1 m/S 757 mmHg 87%
    01:00 +25°C° 0 mm 1 m/S 757 mmHg 87%
    02:00 +25°C° 0 mm 1 m/S 757 mmHg 87%
    03:00 +25°C° 0 mm 1 m/S 757 mmHg 86%
    04:00 +25°C° 0 mm 1 m/S 757 mmHg 86%
    05:00 +25°C° 0 mm 1 m/S 757 mmHg 85%
    06:00 +25°C° 0 mm 1 m/S 757 mmHg 85%
    07:00 +25°C° 0.3 mm 1 m/S 757 mmHg 85%
    08:00 +26°C° 0.3 mm 2 m/S 758 mmHg 86%
    09:00 +26°C° 0.3 mm 2 m/S 758 mmHg 87%
    10:00 +25°C° 0.3 mm 2 m/S 758 mmHg 89%
    11:00 +25°C° 0.3 mm 2 m/S 758 mmHg 90%
    12:00 +25°C° 0.3 mm 2 m/S 758 mmHg 92%
    13:00 +24°C° 0.6 mm 2 m/S 757 mmHg 92%
    14:00 +24°C° 0.6 mm 3 m/S 757 mmHg 92%
    15:00 +24°C° 0.6 mm 3 m/S 757 mmHg 93%
    16:00 +22°C° 0.3 mm 3 m/S 756 mmHg 93%
    17:00 +22°C° 0.3 mm 3 m/S 756 mmHg 94%
    18:00 +22°C° 0.3 mm 4 m/S 756 mmHg 95%
    19:00 +22°C° 1 mm 4 m/S 755 mmHg 95%
    20:00 +22°C° 1 mm 4 m/S 755 mmHg 95%
    21:00 +22°C° 1 mm 5 m/S 755 mmHg 95%
    22:00 +22°C° 2.7 mm 5 m/S 755 mmHg 96%
    23:00 +22°C° 2.7 mm 5 m/S 755 mmHg 96%

    7 Juni, Sonntag

    Zeit Temperatur Niederschläge Wind Luftdruck Luftfeuchtigkeit
    00:00 +22°C° 2.7 mm 5 m/S 754 mmHg 96%
    01:00 +22°C° 3.6 mm 5 m/S 754 mmHg 96%
    02:00 +22°C° 3.6 mm 5 m/S 753 mmHg 96%
    03:00 +22°C° 3.6 mm 5 m/S 753 mmHg 96%
    04:00 +22°C° 1.1 mm 5 m/S 753 mmHg 96%
    05:00 +22°C° 1.1 mm 5 m/S 753 mmHg 95%
    06:00 +21°C° 1.1 mm 5 m/S 753 mmHg 95%
    07:00 +22°C° 4.9 mm 5 m/S 753 mmHg 95%
    08:00 +23°C° 4.9 mm 5 m/S 753 mmHg 96%
    09:00 +25°C° 4.9 mm 5 m/S 754 mmHg 97%
    10:00 +25°C° 3.3 mm 5 m/S 754 mmHg 97%
    11:00 +25°C° 3.3 mm 5 m/S 754 mmHg 96%
    12:00 +25°C° 3.3 mm 5 m/S 754 mmHg 96%
    13:00 +25°C° 2 mm 5 m/S 754 mmHg 95%
    14:00 +25°C° 2 mm 5 m/S 753 mmHg 95%
    15:00 +25°C° 2 mm 5 m/S 753 mmHg 95%
    16:00 +25°C° 0.5 mm 5 m/S 753 mmHg 95%
    17:00 +25°C° 0.5 mm 5 m/S 753 mmHg 95%
    18:00 +23°C° 0.5 mm 4 m/S 753 mmHg 95%
    19:00 +25°C° 0.1 mm 5 m/S 754 mmHg 95%
    20:00 +25°C° 0.1 mm 5 m/S 754 mmHg 94%
    21:00 +25°C° 0.1 mm 5 m/S 754 mmHg 94%
    22:00 +25°C° 0.3 mm 5 m/S 754 mmHg 94%
    23:00 +25°C° 0.3 mm 4 m/S 754 mmHg 95%
    Mehr zeigen